Preview of NWS' New Version of Forecast
This preview is not operational and should not be used for support decisions.

Regional Weather Roundup (RWR)

Issued by Philadelphia/Mt Holly (PHI)

                            
000
ASUS41 KPHI 190412
RWRPHI

REGIONAL WEATHER ROUNDUP
NATIONAL WEATHER SERVICE MOUNT HOLLY NJ
1100 PM EST FRI JAN 18 2019

NOTE:  "FAIR" INDICATES FEW OR NO CLOUDS BELOW 12,000 FEET WITH NO
SIGNIFICANT WEATHER AND/OR OBSTRUCTIONS TO VISIBILITY.

 * = STATION DOES NOT REPORT PRECIPITATION (E.G. RAIN, SNOW, ETC.) 
        OR FOG.

NJZ015>026-190500-
SOUTHERN NEW JERSEY
  
CITY           SKY/WX    TMP DP  RH WIND       PRES   REMARKS
POMONA         MOCLDY    31  31 100 NW6       30.19S FOG     WCI  25  
MILLVILLE      CLOUDY    31  30  96 CALM      30.20R FOG              
WRIGHTSTOWN    CLOUDY    32  31  95 CALM      30.15S FOG              
MOUNT HOLLY    CLOUDY    33  30  88 CALM      30.19S FOG              
TRENTON        CLOUDY    34  30  85 NW6       30.18R FOG     WCI  29  

$$
NJZ001>014-190500-
NORTHERN NEW JERSEY
  
CITY           SKY/WX    TMP DP  RH WIND       PRES   REMARKS
SUSSEX         FAIR      29  22  75 CALM      30.15F                  
ANDOVER*         N/A     32  22  66 CALM      30.16R                  
MORRISTOWN     CLOUDY    30  30 100 CALM      30.18R FOG              
NEWARK         MOCLDY    36  29  75 NW7       30.18R WCI  30          
TETERBORO      CLOUDY    36  28  73 NW10G18   30.17R WCI  28          
CALDWELL       MOCLDY    34  25  69 NW6       30.18R WCI  29          
SOMERVILLE     CLOUDY    29  27  92 CALM      30.17R FOG              
ALLAIRE*       CLOUDY    32  30  92 W3        30.19R FOG              
TOMS RIVER*    MOCLDY    28  28 100 CALM      30.19S FOG              

$$
PAZ043-044-047-054-055-060>062-066>071-190500-
EASTERN PENNSYLVANIA
  
CITY           SKY/WX    TMP DP  RH WIND       PRES   REMARKS
PHILADELPHIA   CLOUDY    35  30  82 W8        30.21R WCI  29          
NORTH PHILA    CLOUDY    36  30  79 W6        30.21R HAZE    WCI  31  
BLUE BELL*     CLOUDY    32  32 100 CALM      30.21R                  
DOYLESTOWN     CLOUDY    31  28  89 CALM      30.18R                  
QUAKERTOWN*    CLOUDY    30  30 100 CALM      30.18  FOG              
PERKASIE*      CLOUDY    28  28 100 CALM      30.19R FOG              
POTTSTOWN      CLOUDY    30  29  96 CALM      30.21R FOG              
LANCASTER      CLOUDY    34  31  88 W3        30.20R FOG              
COATESVILLE    CLOUDY    30  30 100 NW5       30.20R FOG     WCI  25  
READING        CLOUDY    35  31  85 NW6       30.19R FOG     WCI  30  
ALLENTOWN      CLOUDY    35  28  75 NW3       30.18R                  
MOUNT POCONO   CLOUDY    27  19  72 NW10      30.09R WCI  17          
HAZLETON       CLOUDY   N/A N/A N/A CALM      30.14S                  
LEHIGHTON      CLOUDY    34  28  80 CALM      30.18S                  
WILKES BARRE   CLOUDY    33  18  53 CALM      30.13S                  

$$
DEZALL-MDZ008-012-015-019-020-190500-
DELAWARE AND EASTERN MARYLAND
  
CITY           SKY/WX    TMP DP  RH WIND       PRES   REMARKS
WILMINGTON     CLOUDY    35  33  92 W3        30.22R FOG              
DOVER          CLOUDY    35  33  91 NW3       30.20R                  
GEORGETOWN     FAIR      30  27  88 E5        30.21R FOG     WCI  25  
EASTON         CLOUDY    35  34  95 SW3       30.24R FOG              
PATUXENT       CLOUDY    37  37 100 CALM      30.21  FOG              
OCEAN CITY     MOCLDY    34  32  92 CALM      30.21R                  
WALLOPS ISLAND CLOUDY    37  34  89 CALM      30.22R                  
CAMBRIDGE      CLOUDY    34  34 100 CALM      30.22R FOG              
SALISBURY      CLOUDY    34  34 100 CALM      30.21R FOG              

$$
PAZ001-021-NYZ056-072-MDZ011-DCZ001-190500-
OTHER NEARBY LOCATIONS
  
CITY           SKY/WX    TMP DP  RH WIND       PRES   REMARKS
HARRISBURG     CLOUDY    34  31  88 CALM      30.19R                  
STATE COLLEGE  CLOUDY    32  26  78 W3        30.15S                  
WILLIAMSPORT   CLOUDY    32  26  78 W3        30.17R                  
BINGHAMTON     CLOUDY    26  20  77 NW9       30.09F WCI  17          
NEW YORK CITY  CLOUDY    36  28  73 MISG      30.19R                  
BALTIMORE      FAIR      35  33  92 NW3       30.20R                  
WASHINGTON DC  CLOUDY    38  34  85 SE3       30.21R                  

$$